Showing default

ARVAKER-1, 63252

Orbit data source: Space-Track

ARVAKER-1, 63252 is a payload satellite owned by NSC (NO) in SSO that was launched on Sat, 15 Mar 2025 UTC via an FALCON 9 launch vehicle from the Air Force Western Test Range (AFWTR). Payload-class satellites include a variety of spacecraft equipped with specific instruments for various scientific and technological missions. These include communications satellites like Starlink; space stations such as the ISS; scientific satellites like the Hubble; Earth observation satellites from companies like Planet Labs, Umbra, and HawkEye 360; GPS; miniature CubeSats for education and research; and military/defense satellites.

Loading next visibility...
Identifier
63252, 2025-052AU
Orbit
SSO
Country
Flag of NONO / NOR
Related business
Manufacturer
NanoAvionics
Mission
Operational Commercial Imaging
Bus & Motor
MP42, Unknown motor
Mass
~100 kg wet, ~100 kg dry
Launch date (UTC)
2025-03-15 (7 months ago)
Launch vehicle
FALCON 9
Launch site
Air Force Western Test Range (AFWTR)
Object type
Payload
Rocket body
Debris
Shape & HBR
Box + 2 Pan, 0.8 m
Radar Cross Section
0.146 m², Medium (>0.1 m² and < 1m²)

Expand to show TLE details & history
Last TLE update: 15 hours ago

TLE from 15 hours ago
0 ARVAKER-1
1 63252U 25052AU  25287.26805689  .00003661  00000-0  35706-3 0  9990
2 63252  97.7088 178.3370 0002276   4.7137 355.4104 14.93051464 31897
Epoch: 2025-10-14T06:26Z
TLE epoch observation values (Epoch: 2025-10-14T06:26:00.115Z)
Latitude
0.00002°
Longitude
58.77759°
Altitude
589.891 km
Speed
7.566 km/s
True Right ascension
11h 53m 20s
True Declination
0° 00' 00"
Sunlit
Object was in daylight at epoch
Visualization orbit readout
Latitude
Unknown
Longitude
Unknown
Altitude
Unknown
Speed
Unknown
Apparent Right ascension
Unknown
Apparent Declination
Unknown
Sunlit
N/A
Visualization observer readout
Local Sidereal Time
15:55:52
Azimuth
Unknown
Elevation
Unknown
Doppler factor
Unknown
Orbital elements
Apogee altitude
587.027 km
Perigee altitude
583.857 km
Semi-major axis
6,963.579 km
Eccentricity
0.00023
Inclination
97.7088°
RAAN
178.337°
Arg. of periapsis
4.7137°
True anomaly
355.40831°
Mean anomaly
355.4104°
Eccentric anomaly
355.40936°
Mean motion
3.73503 °/min
Orbital period
96.38 mins
BSTAR
0.00035706
Loading maneuver chart data...
Computing Atmospheric mass density...
Loading historical data...
Loading historical data...
Loading historical data...
Loading historical data...
Loading historical data...
Loading historical data...
Loading historical data...

Documentation

Showing up to 5 results
|